Zurück zum Katalog

COSMOS 861

AktivMilitärLEO
NORAD 9494·PAYLOAD·🇷🇺 Russia

Gestartet Oct 21, 1976 von Baikonur Cosmodrome

Loading…

Nächste Überflüge (nächste 24 Stunden)

TLE

AktuellSource: Space-Track

Epoche: Sep 14, 2026, 05:14 UTC

1 09494U 76104A   26257.21861251 -.00000072  00000-0  15496-4 0  9991
2 09494  64.8592 189.5296 0040933 164.2578 195.9763 13.81727953518240

Verfolge COSMOS 861 in Echtzeit mit AllMySat

Download on the App Store